Weather History for Alpine, TX

Change the Weather History Date:

Saturday, March 16, 2013

  Actual Average (KMRF) Record (KMRF)
Temperature  
Mean Temperature 68 °F -  
Max Temperature 84 °F 65 °F 82 °F (2011)
Min Temperature 54 °F 34 °F 24 °F (2005)
Cooling Degree Days 4    
Growing Degree Days 18 (Base 50)    
Moisture  
Dew Point 13 °F    
Average Humidity 13    
Maximum Humidity 23    
Minimum Humidity 7    
Precipitation  
Precipitation 0.00 in - - ()
Sea Level Pressure  
Sea Level Pressure 29.99 in    
Wind  
Wind Speed 12 mph (WSW)    
Max Wind Speed 21 mph    
Max Gust Speed 33 mph    
Visibility 10 miles    
Events      
Averages and records for this station are not official NWS values.
T = Trace of Precipitation, MM = Missing Value Source: NWS Daily Summary

Daily Weather History Graph

Daily Weather History Graph

Search for Another Location

Airport:

Trip Planner

Search our weather history database for the weather conditions in past years. The results will help you decide how hot, cold, wet, or windy it might be!

Date:

Astronomy

Mar. 16, 2013 Rise Set
Actual Time 8:03 AM CDT 8:03 PM CDT
Civil Twilight 7:39 AM CDT 8:27 PM CDT
Nautical Twilight 7:11 AM CDT 8:55 PM CDT
Astronomical Twilight 6:43 AM CDT 9:23 PM CDT
Moon 10:55 AM CDT (3/16) No Moon Set
Length of Visible Light 12h 48m
Length of Day
12h 00m
Waxing Crescent, 23% of the Moon is Illuminated
Mar 16
Waxing Crescent
Mar 19
First Quarter
Mar 27
Full
Apr 2
Last Quarter
Apr 10
New

Hourly Weather History & Observations

Time (CDT) Temp. Dew Point Humidity Pressure Visibility Wind Dir Wind Speed Gust Speed Precip Events Conditions
12:15 AM 55.0 °F 14.2 °F 20% 30.09 in 10.0 mi SSW 6.9 mph - N/A   Clear
12:35 AM 57.0 °F 14.2 °F 19% 30.08 in 10.0 mi South 8.1 mph - N/A   Clear
12:55 AM 56.8 °F 13.8 °F 18% 30.07 in 10.0 mi SW 8.1 mph - N/A   Clear
1:15 AM 54.9 °F 15.3 °F 21% 30.07 in 10.0 mi WSW 10.4 mph - N/A   Clear
1:35 AM 57.6 °F 15.1 °F 19% 30.06 in 10.0 mi SW 12.7 mph - N/A   Clear
1:55 AM 58.6 °F 15.6 °F 19% 30.06 in 10.0 mi WSW 12.7 mph - N/A   Clear
2:15 AM 59.0 °F 14.9 °F 18% 30.05 in 10.0 mi SW 10.4 mph - N/A   Clear
2:35 AM 57.6 °F 15.4 °F 19% 30.05 in 10.0 mi WSW 12.7 mph - N/A   Clear
2:55 AM 58.8 °F 15.4 °F 18% 30.05 in 10.0 mi WSW 9.2 mph - N/A   Clear
3:15 AM 59.2 °F 15.4 °F 18% 30.04 in 10.0 mi SW 10.4 mph - N/A   Clear
3:35 AM 61.5 °F 15.6 °F 17% 30.04 in 10.0 mi SW 8.1 mph - N/A   Clear
3:55 AM 62.6 °F 15.6 °F 16% 30.04 in 10.0 mi SW 8.1 mph - N/A   Clear
4:35 AM 54.1 °F 16.0 °F 22% 30.02 in 10.0 mi SSW 8.1 mph - N/A   Clear
4:55 AM 54.1 °F 16.3 °F 23% 30.02 in 10.0 mi SW 10.4 mph - N/A   Clear
5:15 AM 56.3 °F 16.0 °F 21% 30.02 in 10.0 mi SW 8.1 mph - N/A   Clear
5:35 AM 61.2 °F 16.2 °F 17% 30.01 in 10.0 mi WSW 6.9 mph - N/A   Clear
5:55 AM 60.4 °F 16.3 °F 18% 30.02 in 10.0 mi WSW 10.4 mph - N/A   Clear
6:15 AM 57.6 °F 16.3 °F 20% 30.02 in 10.0 mi WSW 9.2 mph - N/A   Clear
6:35 AM 60.1 °F 16.7 °F 18% 30.02 in 10.0 mi WSW 15.0 mph - N/A   Clear
6:55 AM 60.1 °F 16.7 °F 18% 30.02 in 10.0 mi WSW 15.0 mph - N/A   Clear
7:15 AM 57.6 °F 16.9 °F 20% 30.02 in 10.0 mi WSW 13.8 mph - N/A   Clear
7:35 AM 57.4 °F 17.4 °F 21% 30.02 in 10.0 mi WSW 11.5 mph - N/A   Clear
7:55 AM 57.9 °F 17.4 °F 21% 30.02 in 10.0 mi SW 13.8 mph - N/A   Clear
8:15 AM 57.4 °F 17.4 °F 21% 30.02 in 10.0 mi WSW 12.7 mph - N/A   Clear
8:35 AM 58.6 °F 18.0 °F 21% 30.03 in 10.0 mi West 15.0 mph - N/A   Clear
8:55 AM 62.2 °F 18.0 °F 18% 30.02 in 10.0 mi WSW 13.8 mph - N/A   Clear
9:15 AM 64.9 °F 18.5 °F 17% 30.02 in 10.0 mi WSW 13.8 mph - N/A   Clear
9:35 AM 67.3 °F 18.7 °F 16% 30.03 in 10.0 mi West 13.8 mph - N/A   Clear
9:55 AM 70.2 °F 17.4 °F 13% 30.03 in 10.0 mi WSW 13.8 mph - N/A   Clear
10:15 AM 72.5 °F 17.1 °F 12% 30.03 in 10.0 mi WSW 16.1 mph 20.7 mph N/A   Clear
10:35 AM 73.0 °F 16.5 °F 12% 30.03 in 10.0 mi WSW 19.6 mph - N/A   Clear
10:55 AM 75.2 °F 16.2 °F 11% 30.03 in 10.0 mi West 17.3 mph 23.0 mph N/A   Clear
11:15 AM 75.9 °F 16.0 °F 10% 30.03 in 10.0 mi West 18.4 mph - N/A   Clear
11:35 AM 76.8 °F 16.0 °F 10% 30.03 in 10.0 mi West 18.4 mph - N/A   Clear
11:55 AM 78.4 °F 15.4 °F 9% 30.02 in 10.0 mi WSW 17.3 mph 23.0 mph N/A   Clear
12:15 PM 79.5 °F 15.6 °F 9% 30.02 in 10.0 mi West 15.0 mph - N/A   Clear
12:35 PM 79.9 °F 16.0 °F 9% 30.01 in 10.0 mi WSW 13.8 mph 19.6 mph N/A   Clear
12:55 PM 81.1 °F 14.9 °F 8% 30.01 in 10.0 mi WSW 15.0 mph 19.6 mph N/A   Clear
1:15 PM 83.1 °F 12.7 °F 7% 30.00 in 10.0 mi WSW 20.7 mph 24.2 mph N/A   Clear
1:35 PM 83.1 °F 12.2 °F 7% 29.99 in 10.0 mi West 12.7 mph 26.5 mph N/A   Clear
1:55 PM 82.8 °F 11.7 °F 7% 29.99 in 10.0 mi West 15.0 mph 25.3 mph N/A   Clear
2:15 PM 82.6 °F 11.7 °F 7% 29.98 in 10.0 mi West 13.8 mph 29.9 mph N/A   Clear
2:35 PM 82.2 °F 12.4 °F 7% 29.97 in 10.0 mi West 16.1 mph 27.6 mph N/A   Clear
2:55 PM 82.8 °F 12.4 °F 7% 29.96 in 10.0 mi West 13.8 mph 33.4 mph N/A   Clear
3:15 PM 82.8 °F 14.4 °F 8% 29.95 in 10.0 mi WSW 20.7 mph 27.6 mph N/A   Clear
3:35 PM 83.3 °F 13.6 °F 7% 29.94 in 10.0 mi West 20.7 mph - N/A   Clear
3:55 PM 82.4 °F 12.6 °F 7% 29.94 in 10.0 mi West 13.8 mph 24.2 mph N/A   Clear
4:15 PM 81.9 °F 12.6 °F 7% 29.92 in 10.0 mi WNW 20.7 mph 28.8 mph N/A   Clear
4:35 PM 82.0 °F 13.3 °F 8% 29.92 in 10.0 mi West 17.3 mph 28.8 mph N/A   Clear
4:55 PM 82.4 °F 13.5 °F 8% 29.91 in 10.0 mi West 19.6 mph 24.2 mph N/A   Clear
5:15 PM 82.4 °F 13.5 °F 8% 29.91 in 10.0 mi West 18.4 mph 25.3 mph N/A   Clear
5:55 PM 82.4 °F 14.5 °F 8% 29.89 in 10.0 mi West 18.4 mph 25.3 mph N/A   Clear
6:15 PM 81.5 °F 14.4 °F 8% 29.89 in 10.0 mi WSW 11.5 mph 17.3 mph N/A   Clear
6:35 PM 80.8 °F 11.8 °F 7% 29.89 in 10.0 mi West 16.1 mph 25.3 mph N/A   Clear
6:55 PM 79.7 °F 9.1 °F 7% 29.89 in 10.0 mi West 17.3 mph 25.3 mph N/A   Clear
7:15 PM 78.8 °F 8.2 °F 7% 29.90 in 10.0 mi West 12.7 mph - N/A   Clear
7:35 PM 76.6 °F 9.0 °F 7% 29.91 in 10.0 mi West 6.9 mph - N/A   Clear
7:55 PM 72.9 °F 8.6 °F 8% 29.91 in 10.0 mi West 9.2 mph - N/A   Clear
8:15 PM 71.6 °F 6.8 °F 8% 29.92 in 10.0 mi West 8.1 mph - N/A   Clear
8:35 PM 70.2 °F 5.2 °F 8% 29.92 in 10.0 mi WNW 9.2 mph - N/A   Clear
8:55 PM 70.3 °F 4.5 °F 8% 29.92 in 10.0 mi WNW 8.1 mph - N/A   Clear
9:15 PM 64.9 °F 5.0 °F 9% 29.92 in 10.0 mi West 8.1 mph - N/A   Clear
9:35 PM 63.5 °F 5.4 °F 10% 29.92 in 10.0 mi WSW 9.2 mph - N/A   Clear
9:55 PM 61.3 °F 6.1 °F 11% 29.92 in 10.0 mi West 8.1 mph - N/A   Clear
10:15 PM 60.6 °F 6.8 °F 12% 29.93 in 10.0 mi WSW 9.2 mph - N/A   Clear
10:35 PM 61.9 °F 6.8 °F 11% 29.92 in 10.0 mi WSW 9.2 mph - N/A   Clear
10:55 PM 58.8 °F 7.7 °F 13% 29.93 in 10.0 mi SW 10.4 mph - N/A   Clear
11:15 PM 57.2 °F 7.9 °F 14% 29.93 in 10.0 mi SW 10.4 mph - N/A   Clear
11:35 PM 55.9 °F 7.7 °F 15% 29.93 in 10.0 mi WSW 10.4 mph - N/A   Clear
11:55 PM 56.3 °F 7.5 °F 14% 29.93 in 10.0 mi WSW 10.4 mph - N/A   Clear